Time,TemperatureF,DewpointF,PressureIn,WindDirection,WindDirectionDegrees,WindSpeedMPH,WindSpeedGustMPH,Humidity,HourlyPrecipIn,Conditions,Clouds,dailyrainin,SoftwareType,DateUTC
2013-01-15 00:03:00,29.0,24.0,30.34,WNW,283,0.0,-999.0,81,-99.99,,,-99.99,,2013-01-15 05:03:00,
2013-01-15 00:12:00,29.0,24.0,30.35,WNW,283,0.0,-999.0,82,-99.99,,,-99.99,,2013-01-15 05:12:00,
2013-01-15 00:22:00,29.0,24.0,30.35,WNW,283,0.0,-999.0,82,-99.99,,,-99.99,,2013-01-15 05:22:00,
2013-01-15 00:33:00,29.0,24.0,30.34,WNW,284,0.0,-999.0,80,-99.99,,,-99.99,,2013-01-15 05:33:00,
2013-01-15 00:42:00,29.0,24.0,30.34,WNW,284,0.0,-999.0,80,-99.99,,,-99.99,,2013-01-15 05:42:00,
2013-01-15 00:53:00,29.0,24.0,30.34,WNW,287,0.0,-999.0,80,-99.99,,,-99.99,,2013-01-15 05:53:00,
2013-01-15 01:02:00,29.0,24.0,30.33,NW,306,0.0,-999.0,80,-99.99,,,-99.99,,2013-01-15 06:02:00,
2013-01-15 01:12:00,29.0,24.0,30.33,NW,306,0.0,-999.0,80,-99.99,,,-99.99,,2013-01-15 06:12:00,
2013-01-15 01:22:00,29.0,23.0,30.34,NW,306,0.0,-999.0,79,-99.99,,,-99.99,,2013-01-15 06:22:00,
2013-01-15 01:33:00,29.0,23.0,30.35,NW,305,0.0,-999.0,79,-99.99,,,-99.99,,2013-01-15 06:33:00,
2013-01-15 01:43:00,29.0,23.0,30.35,NW,305,0.0,-999.0,79,-99.99,,,-99.99,,2013-01-15 06:43:00,
2013-01-15 01:53:00,29.0,23.0,30.35,NW,306,1.0,-999.0,79,-99.99,,,-99.99,,2013-01-15 06:53:00,
2013-01-15 02:02:00,29.0,23.0,30.34,NW,304,0.0,-999.0,79,-99.99,,,-99.99,,2013-01-15 07:02:00,
2013-01-15 02:12:00,29.0,23.0,30.34,NW,304,0.0,-999.0,79,-99.99,,,-99.99,,2013-01-15 07:12:00,
2013-01-15 02:22:00,29.0,23.0,30.35,NW,304,0.0,-999.0,79,-99.99,,,-99.99,,2013-01-15 07:22:00,
2013-01-15 02:33:00,29.0,23.0,30.35,WNW,302,1.0,-999.0,79,-99.99,,,-99.99,,2013-01-15 07:33:00,
2013-01-15 02:42:00,29.0,23.0,30.35,WNW,302,1.0,-999.0,79,-99.99,,,-99.99,,2013-01-15 07:42:00,
2013-01-15 02:53:00,29.0,23.0,30.35,WNW,302,0.0,-999.0,79,-99.99,,,-99.99,,2013-01-15 07:53:00,
2013-01-15 03:02:00,29.0,23.0,30.36,WNW,302,0.0,-999.0,79,-99.99,,,-99.99,,2013-01-15 08:02:00,
2013-01-15 03:12:00,29.0,23.0,30.36,WNW,302,0.0,-999.0,79,-99.99,,,-99.99,,2013-01-15 08:12:00,
2013-01-15 03:22:00,29.0,24.0,30.35,WNW,302,0.0,-999.0,80,-99.99,,,-99.99,,2013-01-15 08:22:00,
2013-01-15 03:33:00,29.0,24.0,30.35,WNW,302,0.0,-999.0,80,-99.99,,,-99.99,,2013-01-15 08:33:00,
2013-01-15 03:42:00,29.0,24.0,30.35,WNW,302,0.0,-999.0,80,-99.99,,,-99.99,,2013-01-15 08:42:00,
2013-01-15 03:53:00,29.0,24.0,30.35,WNW,302,0.0,-999.0,80,-99.99,,,-99.99,,2013-01-15 08:53:00,
2013-01-15 04:02:00,29.0,24.0,30.35,WNW,287,0.0,-999.0,81,-99.99,,,-99.99,,2013-01-15 09:02:00,
2013-01-15 04:12:00,29.0,24.0,30.35,WNW,287,0.0,-999.0,81,-99.99,,,-99.99,,2013-01-15 09:12:00,
2013-01-15 04:22:00,29.0,24.0,30.34,NW,306,1.0,-999.0,81,-99.99,,,-99.99,,2013-01-15 09:22:00,
2013-01-15 04:33:00,29.0,24.0,30.34,NW,304,1.0,-999.0,81,-99.99,,,-99.99,,2013-01-15 09:33:00,
2013-01-15 04:42:00,29.0,24.0,30.34,NW,304,1.0,-999.0,81,-99.99,,,-99.99,,2013-01-15 09:42:00,
2013-01-15 04:52:00,29.0,24.0,30.34,NW,307,1.0,-999.0,81,-99.99,,,-99.99,,2013-01-15 09:52:00,
2013-01-15 05:02:00,29.0,24.0,30.34,WNW,302,0.0,-999.0,81,-99.99,,,-99.99,,2013-01-15 10:02:00,
2013-01-15 05:12:00,29.0,24.0,30.34,WNW,302,0.0,-999.0,81,-99.99,,,-99.99,,2013-01-15 10:12:00,
2013-01-15 05:22:00,29.0,24.0,30.34,NW,317,1.0,-999.0,81,-99.99,,,-99.99,,2013-01-15 10:22:00,
2013-01-15 05:32:00,29.0,24.0,30.34,NW,305,1.0,-999.0,82,-99.99,,,-99.99,,2013-01-15 10:32:00,
2013-01-15 05:42:00,29.0,24.0,30.34,NW,305,1.0,-999.0,82,-99.99,,,-99.99,,2013-01-15 10:42:00,
2013-01-15 05:52:00,29.0,24.0,30.34,WNW,300,1.0,-999.0,81,-99.99,,,-99.99,,2013-01-15 10:52:00,
2013-01-15 06:02:00,29.0,24.0,30.35,NE,42,0.0,-999.0,81,-99.99,,,-99.99,,2013-01-15 11:02:00,
2013-01-15 06:12:00,29.0,24.0,30.35,NE,42,0.0,-999.0,81,-99.99,,,-99.99,,2013-01-15 11:12:00,
2013-01-15 06:22:00,29.0,24.0,30.35,NNW,333,1.0,-999.0,81,-99.99,,,-99.99,,2013-01-15 11:22:00,
2013-01-15 06:33:00,29.0,24.0,30.36,NNW,330,1.0,-999.0,81,-99.99,,,-99.99,,2013-01-15 11:33:00,
2013-01-15 06:42:00,29.0,24.0,30.36,NNW,330,1.0,-999.0,81,-99.99,,,-99.99,,2013-01-15 11:42:00,
2013-01-15 06:53:00,29.0,24.0,30.36,NW,319,1.0,-999.0,81,-99.99,,,-99.99,,2013-01-15 11:53:00,
2013-01-15 07:03:00,29.0,24.0,30.37,WNW,294,0.0,-999.0,80,-99.99,,,-99.99,,2013-01-15 12:03:00,
2013-01-15 07:12:00,29.0,24.0,30.37,WNW,294,0.0,-999.0,80,-99.99,,,-99.99,,2013-01-15 12:12:00,
2013-01-15 07:22:00,28.0,23.0,30.37,WNW,300,1.0,-999.0,80,-99.99,,,-99.99,,2013-01-15 12:22:00,
2013-01-15 07:33:00,28.0,23.0,30.38,NW,308,1.0,-999.0,80,-99.99,,,-99.99,,2013-01-15 12:33:00,
2013-01-15 07:43:00,28.0,23.0,30.38,NW,308,1.0,-999.0,80,-99.99,,,-99.99,,2013-01-15 12:43:00,
2013-01-15 07:53:00,28.0,22.0,30.38,WNW,290,1.0,-999.0,79,-99.99,,,-99.99,,2013-01-15 12:53:00,
2013-01-15 08:03:00,28.0,22.0,30.39,West,276,1.0,-999.0,79,-99.99,,,-99.99,,2013-01-15 13:03:00,
2013-01-15 08:12:00,28.0,22.0,30.39,West,276,1.0,-999.0,79,-99.99,,,-99.99,,2013-01-15 13:12:00,
2013-01-15 08:23:00,28.0,22.0,30.39,WNW,300,1.0,-999.0,79,-99.99,,,-99.99,,2013-01-15 13:23:00,
2013-01-15 08:33:00,28.0,22.0,30.40,WNW,302,1.0,-999.0,79,-99.99,,,-99.99,,2013-01-15 13:33:00,
2013-01-15 08:43:00,28.0,22.0,30.40,WNW,302,1.0,-999.0,79,-99.99,,,-99.99,,2013-01-15 13:43:00,
2013-01-15 08:53:00,28.0,23.0,30.40,WNW,296,1.0,-999.0,80,-99.99,,,-99.99,,2013-01-15 13:53:00,
2013-01-15 09:03:00,28.0,23.0,30.39,NNW,340,0.0,-999.0,80,-99.99,,,-99.99,,2013-01-15 14:03:00,
2013-01-15 09:12:00,28.0,23.0,30.39,NNW,340,0.0,-999.0,80,-99.99,,,-99.99,,2013-01-15 14:12:00,
2013-01-15 09:23:00,28.0,23.0,30.38,ENE,68,0.0,-999.0,80,-99.99,,,-99.99,,2013-01-15 14:23:00,
2013-01-15 09:33:00,28.0,22.0,30.39,NW,325,0.0,-999.0,79,-99.99,,,-99.99,,2013-01-15 14:33:00,
2013-01-15 09:43:00,28.0,22.0,30.39,NW,325,0.0,-999.0,79,-99.99,,,-99.99,,2013-01-15 14:43:00,
2013-01-15 09:54:00,28.0,22.0,30.40,NNE,26,0.0,-999.0,79,-99.99,,,-99.99,,2013-01-15 14:54:00,
2013-01-15 10:03:00,28.0,22.0,30.40,North,360,0.0,-999.0,78,-99.99,,,-99.99,,2013-01-15 15:03:00,
2013-01-15 10:12:00,28.0,22.0,30.40,North,360,0.0,-999.0,78,-99.99,,,-99.99,,2013-01-15 15:12:00,
2013-01-15 10:23:00,28.0,22.0,30.40,NE,55,0.0,-999.0,78,-99.99,,,-99.99,,2013-01-15 15:23:00,
2013-01-15 10:33:00,28.0,22.0,30.40,NW,314,0.0,-999.0,78,-99.99,,,-99.99,,2013-01-15 15:33:00,
2013-01-15 10:43:00,28.0,22.0,30.40,NW,314,0.0,-999.0,78,-99.99,,,-99.99,,2013-01-15 15:43:00,
2013-01-15 10:53:00,29.0,23.0,30.39,ENE,67,1.0,-999.0,77,-99.99,,,-99.99,,2013-01-15 15:53:00,
2013-01-15 11:03:00,29.0,22.0,30.39,East,88,1.0,-999.0,76,-99.99,,,-99.99,,2013-01-15 16:03:00,
2013-01-15 11:12:00,29.0,22.0,30.39,East,88,1.0,-999.0,76,-99.99,,,-99.99,,2013-01-15 16:12:00,
2013-01-15 11:23:00,29.0,22.0,30.37,ENE,63,0.0,-999.0,75,-99.99,,,-99.99,,2013-01-15 16:23:00,
2013-01-15 11:33:00,29.0,22.0,30.37,East,92,1.0,-999.0,74,-99.99,,,-99.99,,2013-01-15 16:33:00,
2013-01-15 11:43:00,29.0,22.0,30.37,East,92,1.0,-999.0,74,-99.99,,,-99.99,,2013-01-15 16:43:00,
2013-01-15 11:53:00,29.0,22.0,30.36,East,80,1.0,-999.0,74,-99.99,,,-99.99,,2013-01-15 16:53:00,
2013-01-15 12:03:00,30.0,22.0,30.35,East,85,1.0,-999.0,73,-99.99,,,-99.99,,2013-01-15 17:03:00,
2013-01-15 12:12:00,30.0,22.0,30.35,East,85,1.0,-999.0,73,-99.99,,,-99.99,,2013-01-15 17:12:00,
2013-01-15 12:23:00,30.0,22.0,30.36,ENE,78,1.0,-999.0,72,-99.99,,,-99.99,,2013-01-15 17:23:00,
2013-01-15 12:33:00,30.0,22.0,30.35,NE,56,0.0,-999.0,72,-99.99,,,-99.99,,2013-01-15 17:33:00,
2013-01-15 12:43:00,30.0,22.0,30.35,NE,56,0.0,-999.0,72,-99.99,,,-99.99,,2013-01-15 17:43:00,
2013-01-15 12:53:00,31.0,23.0,30.35,NE,46,0.0,-999.0,71,-99.99,,,-99.99,,2013-01-15 17:53:00,
2013-01-15 13:03:00,31.0,23.0,30.34,NW,324,1.0,-999.0,73,-99.99,,,-99.99,,2013-01-15 18:03:00,
2013-01-15 13:13:00,31.0,23.0,30.34,NW,324,1.0,-999.0,73,-99.99,,,-99.99,,2013-01-15 18:13:00,
2013-01-15 13:23:00,31.0,24.0,30.33,NW,309,1.0,-999.0,74,-99.99,,,-99.99,,2013-01-15 18:23:00,
2013-01-15 13:33:00,31.0,24.0,30.32,WNW,290,1.0,-999.0,74,-99.99,,,-99.99,,2013-01-15 18:33:00,
2013-01-15 13:43:00,31.0,24.0,30.32,WNW,290,1.0,-999.0,74,-99.99,,,-99.99,,2013-01-15 18:43:00,
2013-01-15 13:54:00,31.0,24.0,30.31,North,355,1.0,-999.0,75,-99.99,,,-99.99,,2013-01-15 18:54:00,
2013-01-15 14:03:00,31.0,24.0,30.29,NW,306,1.0,-999.0,75,-99.99,,,-99.99,,2013-01-15 19:03:00,
2013-01-15 14:13:00,31.0,24.0,30.29,NW,306,1.0,-999.0,75,-99.99,,,-99.99,,2013-01-15 19:13:00,
2013-01-15 14:23:00,32.0,25.0,30.29,NW,325,1.0,-999.0,75,-99.99,,,-99.99,,2013-01-15 19:23:00,
2013-01-15 14:33:00,32.0,25.0,30.31,NNW,333,1.0,-999.0,74,-99.99,,,-99.99,,2013-01-15 19:33:00,
2013-01-15 14:42:00,32.0,25.0,30.31,NNW,333,1.0,-999.0,74,-99.99,,,-99.99,,2013-01-15 19:42:00,
2013-01-15 14:53:00,31.0,24.0,30.30,ENE,78,1.0,-999.0,75,-99.99,,,-99.99,,2013-01-15 19:53:00,
2013-01-15 15:03:00,31.0,24.0,30.30,ENE,59,1.0,-999.0,76,-99.99,,,-99.99,,2013-01-15 20:03:00,
2013-01-15 15:12:00,31.0,24.0,30.30,ENE,59,1.0,-999.0,76,-99.99,,,-99.99,,2013-01-15 20:12:00,
2013-01-15 15:23:00,31.0,24.0,30.30,NW,309,1.0,-999.0,76,-99.99,,,-99.99,,2013-01-15 20:23:00,
2013-01-15 15:33:00,31.0,24.0,30.29,NW,313,1.0,-999.0,76,-99.99,,,-99.99,,2013-01-15 20:33:00,
2013-01-15 15:43:00,31.0,24.0,30.29,NW,313,1.0,-999.0,76,-99.99,,,-99.99,,2013-01-15 20:43:00,
2013-01-15 15:53:00,31.0,24.0,30.28,East,83,1.0,-999.0,76,-99.99,,,-99.99,,2013-01-15 20:53:00,
2013-01-15 16:03:00,31.0,25.0,30.27,North,360,1.0,-999.0,77,-99.99,,,-99.99,,2013-01-15 21:03:00,
2013-01-15 16:13:00,31.0,25.0,30.27,North,360,1.0,-999.0,77,-99.99,,,-99.99,,2013-01-15 21:13:00,
2013-01-15 16:23:00,30.0,24.0,30.28,NNW,332,1.0,-999.0,77,-99.99,,,-99.99,,2013-01-15 21:23:00,
2013-01-15 16:33:00,30.0,24.0,30.27,NNE,29,1.0,-999.0,77,-99.99,,,-99.99,,2013-01-15 21:33:00,
2013-01-15 16:43:00,30.0,24.0,30.27,NNE,29,1.0,-999.0,77,-99.99,,,-99.99,,2013-01-15 21:43:00,
2013-01-15 16:53:00,30.0,24.0,30.29,NE,35,1.0,-999.0,78,-99.99,,,-99.99,,2013-01-15 21:53:00,
2013-01-15 17:03:00,30.0,24.0,30.28,North,9,1.0,-999.0,77,-99.99,,,-99.99,,2013-01-15 22:03:00,
2013-01-15 17:12:00,30.0,24.0,30.28,North,9,1.0,-999.0,77,-99.99,,,-99.99,,2013-01-15 22:12:00,
2013-01-15 17:23:00,30.0,24.0,30.27,NNE,19,1.0,-999.0,77,-99.99,,,-99.99,,2013-01-15 22:23:00,
2013-01-15 17:33:00,30.0,24.0,30.28,NNE,18,1.0,-999.0,77,-99.99,,,-99.99,,2013-01-15 22:33:00,
2013-01-15 17:43:00,30.0,24.0,30.28,NNE,18,1.0,-999.0,77,-99.99,,,-99.99,,2013-01-15 22:43:00,
2013-01-15 17:53:00,30.0,24.0,30.27,ENE,61,0.0,-999.0,78,-99.99,,,-99.99,,2013-01-15 22:53:00,
2013-01-15 18:03:00,30.0,24.0,30.28,ENE,65,0.0,-999.0,78,-99.99,,,-99.99,,2013-01-15 23:03:00,
2013-01-15 18:13:00,30.0,24.0,30.28,ENE,65,0.0,-999.0,78,-99.99,,,-99.99,,2013-01-15 23:13:00,
2013-01-15 18:23:00,30.0,24.0,30.27,ENE,78,1.0,-999.0,78,-99.99,,,-99.99,,2013-01-15 23:23:00,
2013-01-15 18:33:00,30.0,24.0,30.25,ENE,59,1.0,-999.0,78,-99.99,,,-99.99,,2013-01-15 23:33:00,
2013-01-15 18:43:00,30.0,24.0,30.25,ENE,59,1.0,-999.0,78,-99.99,,,-99.99,,2013-01-15 23:43:00,
2013-01-15 18:53:00,30.0,24.0,30.24,ENE,69,1.0,-999.0,78,-99.99,,,-99.99,,2013-01-15 23:53:00,
2013-01-15 19:03:00,30.0,24.0,30.24,ENE,64,1.0,-999.0,78,-99.99,,,-99.99,,2013-01-16 00:03:00,
2013-01-15 19:13:00,30.0,24.0,30.24,ENE,64,1.0,-999.0,78,-99.99,,,-99.99,,2013-01-16 00:13:00,
2013-01-15 19:22:00,30.0,24.0,30.24,ENE,76,1.0,-999.0,78,-99.99,,,-99.99,,2013-01-16 00:22:00,
2013-01-15 19:33:00,30.0,24.0,30.24,East,95,1.0,-999.0,78,-99.99,,,-99.99,,2013-01-16 00:33:00,
2013-01-15 19:43:00,30.0,24.0,30.24,East,95,1.0,-999.0,78,-99.99,,,-99.99,,2013-01-16 00:43:00,
2013-01-15 19:53:00,30.0,24.0,30.24,East,95,0.0,-999.0,78,-99.99,,,-99.99,,2013-01-16 00:53:00,
2013-01-15 20:03:00,30.0,24.0,30.22,East,95,0.0,-999.0,79,-99.99,,,-99.99,,2013-01-16 01:03:00,
2013-01-15 20:12:00,30.0,24.0,30.22,East,95,0.0,-999.0,79,-99.99,,,-99.99,,2013-01-16 01:12:00,
2013-01-15 20:22:00,30.0,24.0,30.22,East,95,0.0,-999.0,79,-99.99,,,-99.99,,2013-01-16 01:22:00,
2013-01-15 20:33:00,30.0,24.0,30.22,East,95,0.0,-999.0,79,-99.99,,,-99.99,,2013-01-16 01:33:00,
2013-01-15 20:43:00,30.0,24.0,30.22,East,95,0.0,-999.0,79,-99.99,,,-99.99,,2013-01-16 01:43:00,
2013-01-15 20:53:00,30.0,24.0,30.21,East,90,0.0,-999.0,78,-99.99,,,-99.99,,2013-01-16 01:53:00,
2013-01-15 21:03:00,30.0,24.0,30.19,ENE,72,1.0,-999.0,79,-99.99,,,-99.99,,2013-01-16 02:03:00,
2013-01-15 21:12:00,30.0,24.0,30.19,ENE,72,1.0,-999.0,79,-99.99,,,-99.99,,2013-01-16 02:12:00,
2013-01-15 21:22:00,30.0,24.0,30.20,East,82,1.0,-999.0,79,-99.99,,,-99.99,,2013-01-16 02:22:00,
2013-01-15 21:32:00,30.0,24.0,30.19,ENE,69,0.0,-999.0,79,-99.99,,,-99.99,,2013-01-16 02:32:00,
2013-01-15 21:43:00,30.0,24.0,30.19,ENE,69,0.0,-999.0,79,-99.99,,,-99.99,,2013-01-16 02:43:00,
2013-01-15 21:53:00,30.0,24.0,30.18,ENE,78,0.0,-999.0,79,-99.99,,,-99.99,,2013-01-16 02:53:00,
2013-01-15 22:03:00,30.0,24.0,30.18,ENE,78,0.0,-999.0,79,-99.99,,,-99.99,,2013-01-16 03:03:00,
2013-01-15 22:12:00,30.0,24.0,30.18,ENE,78,0.0,-999.0,79,-99.99,,,-99.99,,2013-01-16 03:12:00,
2013-01-15 22:22:00,30.0,24.0,30.17,ENE,64,1.0,-999.0,79,-99.99,,,-99.99,,2013-01-16 03:22:00,
2013-01-15 22:33:00,30.0,24.0,30.17,ENE,68,1.0,-999.0,79,-99.99,,,-99.99,,2013-01-16 03:33:00,
2013-01-15 22:43:00,30.0,24.0,30.17,ENE,68,1.0,-999.0,79,-99.99,,,-99.99,,2013-01-16 03:43:00,
2013-01-15 22:53:00,30.0,24.0,30.15,ENE,67,0.0,-999.0,79,-99.99,,,-99.99,,2013-01-16 03:53:00,
2013-01-15 23:02:00,30.0,25.0,30.14,ENE,67,0.0,-999.0,80,-99.99,,,-99.99,,2013-01-16 04:02:00,
2013-01-15 23:12:00,30.0,25.0,30.14,ENE,67,0.0,-999.0,80,-99.99,,,-99.99,,2013-01-16 04:12:00,
2013-01-15 23:22:00,30.0,25.0,30.13,ENE,67,0.0,-999.0,80,-99.99,,,-99.99,,2013-01-16 04:22:00,
2013-01-15 23:33:00,30.0,25.0,30.12,ENE,67,0.0,-999.0,80,-99.99,,,-99.99,,2013-01-16 04:33:00,
2013-01-15 23:42:00,30.0,25.0,30.12,ENE,67,0.0,-999.0,80,-99.99,,,-99.99,,2013-01-16 04:42:00,
2013-01-15 23:53:00,30.0,25.0,30.11,ENE,67,0.0,-999.0,80,-99.99,,,-99.99,,2013-01-16 04:53:00,